Flag for Germany Weather past 2 weeks in Wittlich, Rhineland-Palatinate, Germany

Now
59 °F

Sunny.


Feels Like: 60 °F
Forecast: 47 / 68 °F
Wind: 3 mph from North

Location: Spangdahlem


UV Index: 3 (Moderate)

Visibility: N/A


Pressure: 29.59 "Hg

Humidity: 51%

Dew point: 41 °F

Location of WittlichLocation

Historic Weather in Wittlich

°F

Wittlich temperature yesterday

Maximum temperature yesterday: 63 °F (at 2:58 PM)
Minimum temperature yesterday: 49 °F (at 6:58 AM)
Average temperature yesterday: 56 °F

Past Weeks' High & Low Weather Summary

 TemperatureHumidityPressure
High68 °F (Apr 7, 2:58 PM)100% (Apr 7, 5:58 AM)30.39 "Hg (Apr 7, 5:58 AM)
Low33 °F (Apr 16, 5:58 AM)27% (Apr 17, 4:58 PM)29.61 "Hg (Apr 21, 8:58 AM)
Average50 °F64%30.05 "Hg
* Reported Apr 6 9:58 AM — Apr 21 9:58 AM, Wittlich, Weather by CustomWeather, © 2014

Note: Actual official high and low records may vary slightly from our data, if they occured in-between our weather recording intervals... More about our weather records

Advertising

Historic Weather Conditions — Data for Previous 24 hours

 ConditionsComfort  
Time TempWeatherWind HumidityBarometerVisibility
9:58 AM
Apr 21
55 °FSunny.7 mph63%29.61 "HgN/A
8:58 AM54 °FSunny.8 mph63%29.61 "HgN/A
7:58 AM51 °FSunny.9 mph67%29.62 "HgN/A
6:58 AM45 °FClear.8 mph78%29.63 "HgN/A
5:58 AM46 °FClear.9 mph76%29.63 "HgN/A
4:58 AM46 °FClear.13 mph76%29.64 "HgN/A
3:58 AM48 °FClear.12 mph71%29.65 "HgN/A
2:58 AM52 °FPassing clouds.12 mph62%29.64 "HgN/A
1:58 AM53 °FPassing clouds.10 mph61%29.65 "HgN/A
12:58 AM54 °FPassing clouds.8 mph58%29.66 "HgN/A
11:58 PM
Apr 20
53 °FPassing clouds.7 mph62%29.67 "HgN/A
10:58 PM57 °FPassing clouds.10 mph56%29.66 "HgN/A
9:58 PM59 °FPassing clouds.6 mph51%29.65 "HgN/A
8:58 PM59 °FOvercast.7 mph55%29.64 "HgN/A
7:58 PM60 °FOvercast.6 mph51%29.64 "HgN/A
6:58 PM61 °FPartly sunny.5 mph53%29.64 "HgN/A
5:58 PM61 °FOvercast.9 mph51%29.64 "HgN/A
4:58 PM63 °FPartly sunny.12 mph49%29.63 "HgN/A
3:58 PM63 °FScattered clouds.16 mph52%29.64 "HgN/A
2:58 PM63 °FScattered clouds.12 mph52%29.65 "HgN/A
1:58 PM61 °FScattered clouds.13 mph59%29.67 "HgN/A
1:00 PM59 °FBroken clouds.14 mph59%29.70 "HgN/A
12:58 PM59 °FScattered clouds.13 mph61%29.67 "HgN/A
11:58 AM59 °FPartly sunny.12 mph59%29.67 "HgN/A
Weather by CustomWeather, © 2014

See weather overview